TimeEST,TemperatureF,Dew PointF,Humidity,Sea Level PressureIn,VisibilityMPH,Wind Direction,Wind SpeedMPH,Gust SpeedMPH,PrecipitationIn,Events,Conditions,WindDirDegrees,DateUTC
12:35 AM,33.8,32.0,93,30.17,10.0,WNW,8.1,-,N/A,,Unknown,290,2013-01-07 05:35:00
12:55 AM,33.8,32.0,93,30.17,10.0,WNW,9.2,-,N/A,,Unknown,290,2013-01-07 05:55:00
1:15 AM,32.0,32.0,100,30.18,10.0,WNW,8.1,-,N/A,,Unknown,290,2013-01-07 06:15:00
1:35 AM,32.0,32.0,100,30.20,10.0,NW,9.2,17.3,N/A,,Unknown,310,2013-01-07 06:35:00
1:55 AM,32.0,32.0,100,30.21,10.0,NW,10.4,-,N/A,,Unknown,310,2013-01-07 06:55:00
2:15 AM,32.0,32.0,100,30.22,10.0,NW,10.4,-,N/A,,Unknown,320,2013-01-07 07:15:00
2:35 AM,32.0,30.2,93,30.22,10.0,WNW,8.1,-,N/A,,Unknown,290,2013-01-07 07:35:00
2:55 AM,32.0,30.2,93,30.23,7.0,WNW,10.4,17.3,N/A,,Unknown,300,2013-01-07 07:55:00
3:35 AM,30.2,30.2,100,30.25,7.0,WNW,9.2,16.1,N/A,,Unknown,300,2013-01-07 08:35:00
3:55 AM,30.2,30.2,100,30.26,7.0,WNW,9.2,-,N/A,,Unknown,290,2013-01-07 08:55:00
4:15 AM,30.2,30.2,100,30.26,7.0,WNW,5.8,-,N/A,,Unknown,290,2013-01-07 09:15:00
4:35 AM,30.2,30.2,100,30.26,7.0,WNW,4.6,-,N/A,,Unknown,290,2013-01-07 09:35:00
4:55 AM,30.2,30.2,100,30.27,7.0,West,11.5,-,N/A,,Unknown,280,2013-01-07 09:55:00
5:15 AM,30.2,30.2,100,30.28,7.0,WNW,5.8,-,N/A,,Unknown,290,2013-01-07 10:15:00
5:35 AM,30.2,30.2,100,30.28,7.0,WNW,6.9,-,N/A,,Unknown,290,2013-01-07 10:35:00
5:55 AM,30.2,30.2,100,30.29,7.0,WNW,4.6,-,N/A,,Unknown,290,2013-01-07 10:55:00
6:15 AM,30.2,30.2,100,30.29,7.0,West,5.8,-,N/A,,Unknown,280,2013-01-07 11:15:00
6:35 AM,30.2,30.2,100,30.30,7.0,WNW,6.9,-,N/A,,Unknown,290,2013-01-07 11:35:00
6:55 AM,30.2,30.2,100,30.31,7.0,West,4.6,-,N/A,,Unknown,280,2013-01-07 11:55:00
7:15 AM,30.2,30.2,100,30.32,7.0,West,8.1,-,N/A,,Unknown,280,2013-01-07 12:15:00
7:35 AM,30.2,30.2,100,30.33,7.0,WNW,5.8,-,N/A,,Unknown,290,2013-01-07 12:35:00
7:55 AM,30.2,30.2,100,30.34,5.0,West,8.1,-,N/A,,Unknown,280,2013-01-07 12:55:00
8:15 AM,30.2,28.4,93,30.34,5.0,West,6.9,-,N/A,,Unknown,280,2013-01-07 13:15:00
8:35 AM,30.2,28.4,93,30.35,5.0,WNW,4.6,-,N/A,,Unknown,290,2013-01-07 13:35:00
8:55 AM,30.2,28.4,93,30.37,5.0,WNW,6.9,-,N/A,,Unknown,290,2013-01-07 13:55:00
9:15 AM,30.2,28.4,93,30.37,5.0,West,6.9,-,N/A,,Unknown,270,2013-01-07 14:15:00
9:35 AM,30.2,28.4,93,30.38,5.0,West,9.2,-,N/A,,Unknown,280,2013-01-07 14:35:00
10:15 AM,30.2,30.2,100,30.41,4.0,West,5.8,-,N/A,,Unknown,280,2013-01-07 15:15:00
10:35 AM,30.2,30.2,100,30.42,4.0,West,3.5,-,N/A,,Unknown,280,2013-01-07 15:35:00
10:55 AM,30.2,30.2,100,30.42,4.0,West,6.9,-,N/A,,Unknown,270,2013-01-07 15:55:00
11:15 AM,30.2,28.4,93,30.41,5.0,West,9.2,-,N/A,,Unknown,260,2013-01-07 16:15:00
11:35 AM,30.2,30.2,100,30.40,5.0,West,8.1,-,N/A,,Unknown,270,2013-01-07 16:35:00
11:55 AM,32.0,30.2,93,30.40,5.0,West,6.9,-,N/A,,Unknown,280,2013-01-07 16:55:00
12:35 PM,32.0,30.2,93,30.39,5.0,West,9.2,-,N/A,,Unknown,270,2013-01-07 17:35:00
12:55 PM,32.0,30.2,93,30.38,5.0,West,9.2,-,N/A,,Unknown,260,2013-01-07 17:55:00
1:35 PM,32.0,30.2,93,30.37,5.0,West,4.6,-,N/A,,Unknown,260,2013-01-07 18:35:00
2:15 PM,32.0,28.4,87,30.36,7.0,WSW,3.5,-,N/A,,Unknown,240,2013-01-07 19:15:00
2:35 PM,32.0,28.4,87,30.36,10.0,West,4.6,-,N/A,,Unknown,280,2013-01-07 19:35:00
2:55 PM,32.0,28.4,87,30.37,10.0,West,8.1,-,N/A,,Unknown,260,2013-01-07 19:55:00
3:15 PM,32.0,28.4,87,30.36,10.0,SW,3.5,-,N/A,,Unknown,230,2013-01-07 20:15:00
3:35 PM,32.0,26.6,80,30.36,10.0,SW,4.6,-,N/A,,Unknown,230,2013-01-07 20:35:00
3:55 PM,32.0,26.6,80,30.36,10.0,SW,5.8,-,N/A,,Unknown,220,2013-01-07 20:55:00
4:15 PM,32.0,26.6,80,30.36,10.0,West,4.6,-,N/A,,Unknown,270,2013-01-07 21:15:00
4:35 PM,32.0,26.6,80,30.36,10.0,WSW,5.8,-,N/A,,Unknown,250,2013-01-07 21:35:00
4:55 PM,30.2,26.6,86,30.36,10.0,WSW,5.8,-,N/A,,Unknown,250,2013-01-07 21:55:00
5:15 PM,30.2,26.6,86,30.35,10.0,Calm,Calm,-,N/A,,Unknown,0,2013-01-07 22:15:00
5:35 PM,30.2,26.6,86,30.35,10.0,Calm,Calm,-,N/A,,Unknown,0,2013-01-07 22:35:00
5:55 PM,28.4,26.6,93,30.35,10.0,Calm,Calm,-,N/A,,Unknown,0,2013-01-07 22:55:00
6:15 PM,28.4,26.6,93,30.35,10.0,Calm,Calm,-,N/A,,Unknown,0,2013-01-07 23:15:00
6:35 PM,28.4,24.8,86,30.34,10.0,Calm,Calm,-,N/A,,Unknown,0,2013-01-07 23:35:00
6:55 PM,26.6,24.8,93,30.33,10.0,Calm,Calm,-,N/A,,Unknown,0,2013-01-07 23:55:00
7:15 PM,26.6,24.8,93,30.33,10.0,SSW,3.5,-,N/A,,Unknown,210,2013-01-08 00:15:00
7:35 PM,26.6,24.8,93,30.33,10.0,WSW,3.5,-,N/A,,Unknown,250,2013-01-08 00:35:00
7:55 PM,26.6,24.8,93,30.33,10.0,Calm,Calm,-,N/A,,Unknown,0,2013-01-08 00:55:00
8:15 PM,24.8,23.0,93,30.32,10.0,Calm,Calm,-,N/A,,Unknown,0,2013-01-08 01:15:00
8:35 PM,23.0,23.0,100,30.32,10.0,Calm,Calm,-,N/A,,Unknown,0,2013-01-08 01:35:00
8:55 PM,21.2,21.2,100,30.32,7.0,Calm,Calm,-,N/A,,Unknown,0,2013-01-08 01:55:00
9:15 PM,19.4,19.4,100,30.31,7.0,Calm,Calm,-,N/A,,Unknown,0,2013-01-08 02:15:00
9:35 PM,21.2,21.2,100,30.31,7.0,Calm,Calm,-,N/A,,Unknown,0,2013-01-08 02:35:00
9:55 PM,17.6,17.6,100,30.31,7.0,Calm,Calm,-,N/A,,Unknown,0,2013-01-08 02:55:00
10:15 PM,17.6,17.6,100,30.29,7.0,Calm,Calm,-,N/A,,Unknown,0,2013-01-08 03:15:00
10:35 PM,19.4,19.4,100,30.30,7.0,Calm,Calm,-,N/A,,Unknown,0,2013-01-08 03:35:00
10:55 PM,17.6,17.6,100,30.29,7.0,Calm,Calm,-,N/A,,Unknown,0,2013-01-08 03:55:00
11:15 PM,17.6,17.6,100,30.28,7.0,Calm,Calm,-,N/A,,Unknown,0,2013-01-08 04:15:00
11:35 PM,17.6,17.6,100,30.27,7.0,Calm,Calm,-,N/A,,Unknown,0,2013-01-08 04:35:00
11:55 PM,17.6,17.6,100,30.27,7.0,Calm,Calm,-,N/A,,Unknown,0,2013-01-08 04:55:00